Content
SEND FEEDBACK

Daily
Averages
Monthly
Summary
United States of America

GREENSBURG, INDIANA


Home > North America > United States > Indiana
Elevation: 949 feet     Latitude: 39 20N     Longitude: 085 28W

WEATHER
 
SELECT A DAY
Number of Records: 175,394;   Date Range: 10/15/98 - 9/30/14
 
SHARE

PRINT THIS DATA

[ ← Previous Day ]
WEATHER ALMANAC - JULY 22, 2014
[ Next Day → ]
[ °C ]   °F
Weather ElementAverageHighLow
Temperature77.5 °F89.1 °F (2:53 pm)63 °F (5:53 am)
Dewpoint65.2 °F69.1 °F (10:53 am)59 °F (5:53 am)
Humidity68.1 %90 % (4:53 am)45 % (3:53 pm)
Barometer30.05 in30.10 in (5:53 am)29.99 in (11:53 pm)
Wind Speed5.5 mph11.5 mph (1:53 pm)
Weather ElementAverage
Visibility8 mi
Wind DirectionSSE (154.1 °)

Weather ElementTotal
Precipitation---
Cooling Degree Days11.1 (Base 65)
Growing Degree Days26.1 (Base 50)
Averaged from 22 records on July 22, 2014
WEATHER CONDITIONS BREAKOUT
WIND DIRECTION BREAKOUT
WEATHER BY HOUR - JULY 22, 2014
[ °C ]   °F
Local TimeTemperatureDewpointHumidityBarometerVisibilityWind DirectionWind SpeedGust SpeedPrecipitationEventsConditions
1:53 AM66.0 °F62.1 °F87 %30.08 in5.0 miEast (80°)3.5 mphClear
2:53 AM64.9 °F61.0 °F87 %30.08 in5.0 miNE (50°)3.5 mphClear
3:53 AM64.9 °F61.0 °F87 %30.07 in6.0 miCalmClear
4:53 AM64.0 °F61.0 °F90 %30.08 in5.0 miCalmClear
5:53 AM63.0 °F59.0 °F87 %30.10 in5.0 miCalmClear
6:53 AM63.0 °F59.0 °F87 %30.10 in4.0 miCalmClear
7:53 AM68.0 °F63.0 °F84 %30.10 in4.0 miEast (90°)3.5 mphHaze
8:53 AM73.0 °F66.9 °F81 %30.10 in7.0 miCalmClear
10:53 AM82.9 °F69.1 °F63 %30.09 in10.0 miSW (220°)5.8 mphClear
11:53 AM84.9 °F66.9 °F55 %30.08 in10.0 miSW (230°)4.6 mphClear
12:53 PM87.1 °F66.0 °F49 %30.07 in10.0 miSW (230°)10.4 mphScattered Clouds
1:53 PM86.0 °F64.9 °F49 %30.06 in10.0 miWSW (250°)11.5 mphScattered Clouds
2:53 PM89.1 °F66.9 °F48 %30.05 in10.0 miSSW (200°)10.4 mphPartly Cloudy
3:53 PM89.1 °F64.9 °F45 %30.04 in10.0 miSSW (210°)10.4 mphClear
4:53 PM89.1 °F66.9 °F48 %30.03 in10.0 miWSW (240°)10.4 mphPartly Cloudy
5:53 PM89.1 °F66.0 °F46 %30.01 in10.0 miSW (230°)9.2 mphClear
6:53 PM87.1 °F66.9 °F51 %30.01 in10.0 miSW (230°)9.2 mphClear
7:53 PM84.0 °F69.1 °F61 %30.00 in10.0 miSSW (210°)5.8 mphClear
8:53 PM80.1 °F69.1 °F69 %30.02 in10.0 miWest (280°)5.8 mphClear
9:53 PM79.0 °F68.0 °F69 %30.02 in9.0 miWest (260°)4.6 mphClear
10:53 PM75.0 °F68.0 °F79 %30.01 in8.0 miSouth (190°)5.8 mphClear
11:53 PM75.9 °F68.0 °F76 %29.99 in9.0 miSouth (190°)6.9 mphScattered Clouds
Hourly data recorded from KGEZ, located miles away from Greensburg, Indiana







STORIES FROM OUR PARTNERS